�N����,����,�g�[���i���ԁj���x,�g�[�����x,��g�[���i���ցj���x,����
 2003/09/01, 0:00,27.9,49,29.5,30.7
 2003/09/01, 0:15,28.1,50.5,29.5,30.6
 2003/09/01, 0:30,28.4,55,29.5,30.6
 2003/09/01, 0:45,28.5,57.5,29.5,30.6
 2003/09/01, 1:00,28.6,57,29.5,30.6
 2003/09/01, 1:15,27.6,47,29.4,30.6
 2003/09/01, 1:30,26.9,44,29.4,30.6
 2003/09/01, 1:45,27.5,49,29.3,30.6
 2003/09/01, 2:00,27.9,51,29.3,30.6
 2003/09/01, 2:15,28,52.5,29.2,30.6
 2003/09/01, 2:30,28.1,54,29.2,30.6
 2003/09/01, 2:45,28.2,54.5,29.2,30.6
 2003/09/01, 3:00,28.4,54,29.2,30.5
 2003/09/01, 3:15,28.5,56,29.2,30.5
 2003/09/01, 3:30,28.5,57,29.1,30.5
 2003/09/01, 3:45,28.6,57,29.1,30.5
 2003/09/01, 4:00,28.6,57,29.1,30.4
 2003/09/01, 4:15,28.7,57,29,30.4
 2003/09/01, 4:30,28.7,57,29,30.4
 2003/09/01, 4:45,28.7,58,28.9,30.4
 2003/09/01, 5:00,28.7,59,28.9,30.3
 2003/09/01, 5:15,28.8,59,28.9,30.3
 2003/09/01, 5:30,28.8,59,28.9,30.3
 2003/09/01, 5:45,28.9,60.5,28.9,30.2
 2003/09/01, 6:00,28.9,67,28.8,30.2
 2003/09/01, 6:15,29,67,28.9,30.2
 2003/09/01, 6:30,29.1,70,28.9,30.2
 2003/09/01, 6:45,29.1,70.5,29,30.1
 2003/09/01, 7:00,29.2,71,29.1,30.1
 2003/09/01, 7:15,29.4,70.5,29.2,30.1
 2003/09/01, 7:30,29.4,70,29.3,30
 2003/09/01, 7:45,29.5,70,29.4,30
 2003/09/01, 8:00,29.7,69,29.4,30
 2003/09/01, 8:15,29.9,67.5,29.5,30
 2003/09/01, 8:30,30.2,67,29.6,30
 2003/09/01, 8:45,30.5,66,29.9,30
 2003/09/01, 9:00,30.6,66,29.9,30
 2003/09/01, 9:15,30.9,63.5,30.2,30
 2003/09/01, 9:30,31.1,62,30.4,30
 2003/09/01, 9:45,31.3,61,30.5,30
 2003/09/01,10:00,31.7,60,30.6,30
 2003/09/01,10:15,31.6,57.5,30.8,30
 2003/09/01,10:30,30.4,51,30.8,30
 2003/09/01,10:45,30.1,48,30.9,30
 2003/09/01,11:00,29.9,45,31,30.1
 2003/09/01,11:15,29.6,46.5,31.1,30.1
 2003/09/01,11:30,29.4,50,31.3,30.1
 2003/09/01,11:45,29,49.5,31.2,30.2
 2003/09/01,12:00,29,49,31.2,30.2
 2003/09/01,12:15,29,48,31.4,30.2
 2003/09/01,12:30,29,47,31.5,30.3
 2003/09/01,12:45,29,47,31.7,30.3
 2003/09/01,13:00,28.9,46,31.8,30.3
 2003/09/01,13:15,28.8,46.5,32,30.4
 2003/09/01,13:30,28.9,47,32.3,30.4
 2003/09/01,13:45,29,46.5,32.3,30.4
 2003/09/01,14:00,28.7,46,32.3,30.5
 2003/09/01,14:15,28.6,45,32.5,30.5
 2003/09/01,14:30,28.4,44,32.7,30.6
 2003/09/01,14:45,28.6,44.5,33,30.6
 2003/09/01,15:00,28.7,45,33.4,30.6
 2003/09/01,15:15,28.6,44.5,33.8,30.7
 2003/09/01,15:30,28.6,44,33.6,30.7
 2003/09/01,15:45,28.4,44.5,33.3,30.8
 2003/09/01,16:00,28.6,46,33.2,30.8
 2003/09/01,16:15,28.7,46,33.5,30.9
 2003/09/01,16:30,28.7,46,34.1,30.9
 2003/09/01,16:45,28.7,45.5,34.2,31
 2003/09/01,17:00,28.5,45,34.1,31
 2003/09/01,17:15,28.4,45,33.5,31
 2003/09/01,17:30,28.2,45,32.8,31.1
 2003/09/01,17:45,28.1,45,32.3,31.1
 2003/09/01,18:00,28.2,45,32,31.2
 2003/09/01,18:15,28,45,31.8,31.2
 2003/09/01,18:30,28.1,45,31.6,31.2
 2003/09/01,18:45,28.4,46,31.5,31.3
 2003/09/01,19:00,28.4,47,31.3,31.3
 2003/09/01,19:15,28.5,47,31.1,31.4
 2003/09/01,19:30,28.3,47,31.1,31.4
 2003/09/01,19:45,28.1,46.5,31,31.4
 2003/09/01,20:00,27.9,46,30.9,31.4
 2003/09/01,20:15,28.1,47,30.8,31.4
 2003/09/01,20:30,28.6,48,30.7,31.4
 2003/09/01,20:45,28.6,47.5,30.6,31.4
 2003/09/01,21:00,28.3,46,30.5,31.4
 2003/09/01,21:15,27.8,44.5,30.5,31.4
 2003/09/01,21:30,27.8,45,30.4,31.4
 2003/09/01,21:45,27.9,45.5,30.4,31.5
 2003/09/01,22:00,27.5,44,30.3,31.4
 2003/09/01,22:15,27.4,44,30.2,31.4
 2003/09/01,22:30,27.3,46,30.1,31.4
 2003/09/01,22:45,27.1,46,30,31.4
 2003/09/01,23:00,27,46,29.8,31.4
 2003/09/01,23:15,26.8,46,29.9,30
 2003/09/01,23:30,26.6,46,29.8,28.6
 2003/09/01,23:45,26.4,45,29.6,28.7
 2003/09/02, 0:00,26.7,44,29.6,28.7
 2003/09/02, 0:15,27.2,46.5,29.5,28.8
 2003/09/02, 0:30,27.5,48,29.5,28.8
 2003/09/02, 0:45,27.8,49.5,29.5,28.9
 2003/09/02, 1:00,28,51,29.4,28.9
 2003/09/02, 1:15,28,52,29.4,28.9
 2003/09/02, 1:30,28.2,52,29.4,29
 2003/09/02, 1:45,28.3,54,29.4,29
 2003/09/02, 2:00,27.9,52,29.3,29
 2003/09/02, 2:15,27.4,49,29.2,29
 2003/09/02, 2:30,26.9,46,29.2,29.1
 2003/09/02, 2:45,26.8,46,29.1,29.1
 2003/09/02, 3:00,27.1,48,29,28.4
 2003/09/02, 3:15,27.4,49,29,28.5
 2003/09/02, 3:30,27.5,49,28.9,28.5
 2003/09/02, 3:45,27.6,50,28.9,28.5
 2003/09/02, 4:00,27.5,48,28.9,28.5
 2003/09/02, 4:15,27,46,28.9,28.5
 2003/09/02, 4:30,26.9,47,28.7,28.6
 2003/09/02, 4:45,27.2,48.5,28.7,28.6
 2003/09/02, 5:00,27.4,49,28.7,28.6
 2003/09/02, 5:15,27.5,50,28.6,28.6
 2003/09/02, 5:30,27.6,50,28.6,28.6
 2003/09/02, 5:45,27.7,51,28.5,28.6
 2003/09/02, 6:00,27.7,51,28.5,28.6
 2003/09/02, 6:15,27.8,51,28.5,28.6
 2003/09/02, 6:30,27.9,52,28.5,28.6
 2003/09/02, 6:45,28,52.5,28.5,28.6
 2003/09/02, 7:00,28.1,54,28.5,28.6
 2003/09/02, 7:15,28.1,54,28.6,28.1
 2003/09/02, 7:30,28.4,57,28.7,27.5
 2003/09/02, 7:45,29,60.5,28.8,27.6
 2003/09/02, 8:00,29.2,60,28.9,27.6
 2003/09/02, 8:15,29.4,61,29.1,27.7
 2003/09/02, 8:30,29.7,61,29.3,27.7
 2003/09/02, 8:45,29.9,61.5,29.5,27.7
 2003/09/02, 9:00,30,62,29.6,27.7
 2003/09/02, 9:15,28.6,54,29.8,27.8
 2003/09/02, 9:30,28.6,55,30,27.8
 2003/09/02, 9:45,28.9,55,30.1,27.8
 2003/09/02,10:00,29,55,30.1,27.9
 2003/09/02,10:15,29,54.5,30.1,27.9
 2003/09/02,10:30,28.8,54,30.1,27.9
 2003/09/02,10:45,28.7,54,30.2,28
 2003/09/02,11:00,28.6,54,30.3,28
 2003/09/02,11:15,28.5,54,30.6,28
 2003/09/02,11:30,28.4,54,30.8,28
 2003/09/02,11:45,28.3,54,30.9,28.1
 2003/09/02,12:00,28.3,54,31,28.1
 2003/09/02,12:15,28.2,54,31.1,28.2
 2003/09/02,12:30,28.1,53,31.2,28.2
 2003/09/02,12:45,28.1,53,31.4,28.3
 2003/09/02,13:00,28,53,31.5,28.4
 2003/09/02,13:15,27.9,53,31.5,28.4
 2003/09/02,13:30,27.9,53,31.7,28.5
 2003/09/02,13:45,27.9,53,32.1,28.5
 2003/09/02,14:00,27.9,54,32.5,28.6
 2003/09/02,14:15,28,53.5,32.9,28.7
 2003/09/02,14:30,28.3,54,33.2,28.8
 2003/09/02,14:45,28.5,54,33.6,28.9
 2003/09/02,15:00,28.7,54,33.8,28.9
 2003/09/02,15:15,29,55,34.1,29
 2003/09/02,15:30,29.2,55,34.5,29.1
 2003/09/02,15:45,29.5,55,34.9,29.1
 2003/09/02,16:00,29.8,56,35.2,29.3
 2003/09/02,16:15,30,56,35.4,29.4
 2003/09/02,16:30,30.3,56,35.5,29.4
 2003/09/02,16:45,30.5,56.5,35.6,29.5
 2003/09/02,17:00,30.8,57,35.5,29.6
 2003/09/02,17:15,31,57,35,29.8
 2003/09/02,17:30,31.1,57,34.6,29.8
 2003/09/02,17:45,31.2,57,34.2,29.9
 2003/09/02,18:00,31.3,57,33.9,30
 2003/09/02,18:15,31.2,56,33.7,30.1
 2003/09/02,18:30,31.1,56,33.3,30.2
 2003/09/02,18:45,30.9,55,33,30.4
 2003/09/02,19:00,30.6,55,32.8,30.4
 2003/09/02,19:15,30.4,54,32.7,30.5
 2003/09/02,19:30,30.1,53,32.5,30.6
 2003/09/02,19:45,30,54,32.3,30.8
 2003/09/02,20:00,29.8,53,32.2,30.8
 2003/09/02,20:15,29.6,53,32.1,30.9
 2003/09/02,20:30,29.5,54,32,31
 2003/09/02,20:45,29.4,54,31.9,31
 2003/09/02,21:00,29.3,54,31.7,31.1
 2003/09/02,21:15,29.2,53,31.5,31.1
 2003/09/02,21:30,29.1,53,31.4,31.2
 2003/09/02,21:45,29,53,31.4,31.2
 2003/09/02,22:00,28.8,52,31.2,31.3
 2003/09/02,22:15,28.6,52,31.1,31.4
 2003/09/02,22:30,28.4,52,31,31.4
 2003/09/02,22:45,28.4,52,31,31.5
 2003/09/02,23:00,28.2,52,30.8,31.5
 2003/09/02,23:15,28.1,51.5,30.5,31.5
 2003/09/02,23:30,28,51,30.6,31.5
 2003/09/02,23:45,27.8,51,30.5,31.6
 2003/09/03, 0:00,27.7,51,30.3,31.6
 2003/09/03, 0:15,27.5,50.5,30.2,31.6
 2003/09/03, 0:30,27.4,50,30.1,31.6
 2003/09/03, 0:45,27.2,50,30,31.6
 2003/09/03, 1:00,27.1,50,29.9,31.6
 2003/09/03, 1:15,27,50,29.8,31.6
 2003/09/03, 1:30,26.9,50,29.8,31.6
 2003/09/03, 1:45,26.8,50,29.6,31.6
 2003/09/03, 2:00,26.6,50,29.6,28.7
 2003/09/03, 2:15,26.5,50,29.5,28.8
 2003/09/03, 2:30,26.5,50,29.5,28.8
 2003/09/03, 2:45,26.4,50,29.5,28.9
 2003/09/03, 3:00,26.4,50,29.5,28.9
 2003/09/03, 3:15,26.4,50,29.5,29
 2003/09/03, 3:30,26.5,50,29.4,29
 2003/09/03, 3:45,26.5,50,29.4,29
 2003/09/03, 4:00,26.5,50,29.3,29.1
 2003/09/03, 4:15,26.5,50,29.2,29.1
 2003/09/03, 4:30,26.5,50,29.2,29.1
 2003/09/03, 4:45,26.4,50,29.1,29.1
 2003/09/03, 5:00,26.3,50,29.1,29.2
 2003/09/03, 5:15,26.4,50,29,29.2
 2003/09/03, 5:30,26.4,50,29,29.2
 2003/09/03, 5:45,26.5,50,28.9,29.2
 2003/09/03, 6:00,26.5,50,28.9,29.2
 2003/09/03, 6:15,26.6,51,29,29.2
 2003/09/03, 6:30,26.7,51,28.9,29.2
 2003/09/03, 6:45,26.9,51,28.9,29.2
 2003/09/03, 7:00,27,51,29,29.2
 2003/09/03, 7:15,27.1,51,29,29.2
 2003/09/03, 7:30,27.2,51,29,29.3
 2003/09/03, 7:45,27.4,52,29.1,27.9
 2003/09/03, 8:00,27.5,52,29.3,27.9
 2003/09/03, 8:15,27.7,52,29.5,28
 2003/09/03, 8:30,27.8,52,29.5,28
 2003/09/03, 8:45,28,53,29.5,28
 2003/09/03, 9:00,28.2,53,29.6,28.1
 2003/09/03, 9:15,28.2,53,29.7,28.1
 2003/09/03, 9:30,28.2,53,29.8,28.1
 2003/09/03, 9:45,28.1,52,30,28.2
 2003/09/03,10:00,28,52,30.2,28.2
 2003/09/03,10:15,28,52,30.2,28.2
 2003/09/03,10:30,27.9,52,30.5,28.3
 2003/09/03,10:45,27.9,52,30.4,28.4
 2003/09/03,11:00,27.8,52,30.5,28.4
 2003/09/03,11:15,27.8,52,30.8,28.4
 2003/09/03,11:30,27.8,52,31,28.5
 2003/09/03,11:45,28,52.5,31.1,28.5
 2003/09/03,12:00,28.1,53,31.5,28.6
 2003/09/03,12:15,28.4,53,31.8,28.6
 2003/09/03,12:30,28.6,54,31.7,28.7
 2003/09/03,12:45,28.9,54,31.8,28.8
 2003/09/03,13:00,29,54,31.8,28.9
 2003/09/03,13:15,29.3,54.5,31.8,28.9
 2003/09/03,13:30,29.5,55,31.9,29
 2003/09/03,13:45,29.6,54.5,32,29
 2003/09/03,14:00,29.6,54,32.2,29.1
 2003/09/03,14:15,29.5,53,32.5,29.2
 2003/09/03,14:30,29.4,53,32.4,29.3
 2003/09/03,14:45,29.1,52,32.2,29.3
 2003/09/03,15:00,29,52,32.1,29.4
 2003/09/03,15:15,28.8,52,32.2,29.5
 2003/09/03,15:30,28.6,52,32.2,29.5
 2003/09/03,15:45,28.5,51,32.2,29.6
 2003/09/03,16:00,28.3,51,32.2,29.6
 2003/09/03,16:15,28.1,51,32.9,29.7
 2003/09/03,16:30,28.1,51,33,29.8
 2003/09/03,16:45,28,51,32.5,29.9
 2003/09/03,17:00,27.8,51,32.1,29.9
 2003/09/03,17:15,27.8,50,31,30
 2003/09/03,17:30,27.6,50,31.4,30
 2003/09/03,17:45,27.5,50,31.2,30.1
 2003/09/03,18:00,27.3,50,31.1,30.2
 2003/09/03,18:15,27.3,50.5,31,30.2
 2003/09/03,18:30,27.2,50,30.9,30.3
 2003/09/03,18:45,27.2,50.5,30.8,30.4
 2003/09/03,19:00,27.2,50,30.7,30.4
 2003/09/03,19:15,27.1,51,30.6,30.5
 2003/09/03,19:30,27.1,51,30.5,30.6
 2003/09/03,19:45,27,51,30.4,30.6
 2003/09/03,20:00,27,51,30.4,30.6
 2003/09/03,20:15,27,51,30.2,30.7
 2003/09/03,20:30,27,51,30.2,30.7
 2003/09/03,20:45,27,51,30,30.8
 2003/09/03,21:00,27,51,30,30.8
 2003/09/03,21:15,27,50.5,30,30.8
 2003/09/03,21:30,27,50,29.8,30.8
 2003/09/03,21:45,27,50,29.8,30.9
 2003/09/03,22:00,26.8,50,29.7,30.9
 2003/09/03,22:15,26.8,50,29.5,30.9
 2003/09/03,22:30,26.7,50,29.5,30.9
 2003/09/03,22:45,26.5,50,29.4,30.9
 2003/09/03,23:00,26.5,50,29.3,30.9
 2003/09/03,23:15,26.4,49,29.2,30.9
 2003/09/03,23:30,26.3,49,29.1,30.9
 2003/09/03,23:45,26.1,49,29,30.9
 2003/09/04, 0:00,26.1,49,29,30.9
 2003/09/04, 0:15,26,49,29,30.8
 2003/09/04, 0:30,26,49,28.8,30.8
 2003/09/04, 0:45,25.9,49,28.8,30.8
 2003/09/04, 1:00,25.9,49,28.7,30.8
 2003/09/04, 1:15,25.9,50,28.6,30.7
 2003/09/04, 1:30,25.9,50,28.6,30.7
 2003/09/04, 1:45,25.9,50,28.5,30.6
 2003/09/04, 2:00,25.9,50,28.5,30.6
 2003/09/04, 2:15,25.9,50,28.5,30.6
 2003/09/04, 2:30,26,50,28.5,30.5
 2003/09/04, 2:45,26.1,50,28.5,30.5
 2003/09/04, 3:00,26.1,50,28.4,30.4
 2003/09/04, 3:15,26.2,51,28.4,30.4
 2003/09/04, 3:30,26.4,51,28.3,30.4
 2003/09/04, 3:45,26.6,51,28.3,30.3
 2003/09/04, 4:00,26.9,52,28.2,30.2
 2003/09/04, 4:15,27.1,52,28.1,30.2
 2003/09/04, 4:30,27.3,52,28.1,30.2
 2003/09/04, 4:45,27.5,53,28,30.1
 2003/09/04, 5:00,27.6,53,28,30.1
 2003/09/04, 5:15,27.7,53,27.9,30
 2003/09/04, 5:30,27.8,53,27.9,30
 2003/09/04, 5:45,27.8,53,27.9,29.9
 2003/09/04, 6:00,27.9,53,27.8,29.9
 2003/09/04, 6:15,27.9,53,27.8,27.6
 2003/09/04, 6:30,28,53,27.9,27.7
 2003/09/04, 6:45,28,53,28,27.7
 2003/09/04, 7:00,28,53,28,27.7
 2003/09/04, 7:15,28,53.5,28,27.7
 2003/09/04, 7:30,28.1,53,28.1,27.7
 2003/09/04, 7:45,28.1,54,28.2,27.8
 2003/09/04, 8:00,28.1,54,28.4,27.8
 2003/09/04, 8:15,28.1,54,28.4,27.8
 2003/09/04, 8:30,28.2,54,28.5,27.8
 2003/09/04, 8:45,28.3,54,28.5,27.9
 2003/09/04, 9:00,28.4,54,28.7,27.9
 2003/09/04, 9:15,28.5,54,29,27.9
 2003/09/04, 9:30,28.6,55,29.3,27.9
 2003/09/04, 9:45,28.8,55,29.5,27.9
 2003/09/04,10:00,28.9,55,29.6,27.9
 2003/09/04,10:15,29,55,29.8,27.9
 2003/09/04,10:30,29.2,56,29.8,27.9
 2003/09/04,10:45,29.4,56,30,28
 2003/09/04,11:00,29.5,56,30.2,28
 2003/09/04,11:15,29.6,56,30.5,28
 2003/09/04,11:30,29.8,56,30.7,28
 2003/09/04,11:45,29.9,57,30.9,28
 2003/09/04,12:00,30,57,31,28.1
 2003/09/04,12:15,30.2,57,31,28.1
 2003/09/04,12:30,30.3,57,31.2,28.2
 2003/09/04,12:45,30.5,57,31.3,28.2
 2003/09/04,13:00,30.6,58,31.6,28.3
 2003/09/04,13:15,30.6,58,31.8,28.3
 2003/09/04,13:30,30.8,58,31.9,28.4
 2003/09/04,13:45,31,58,32.2,28.4
 2003/09/04,14:00,31.1,58,32.7,28.5
 2003/09/04,14:15,31.2,58,33.2,28.5
 2003/09/04,14:30,31.3,58,33.5,28.6
 2003/09/04,14:45,31.5,58.5,33.5,28.6
 2003/09/04,15:00,31.7,58,33.9,28.7
 2003/09/04,15:15,31.7,59,34.3,28.8
 2003/09/04,15:30,31.8,59,34.7,28.9
 2003/09/04,15:45,31.9,59,34.9,29
 2003/09/04,16:00,31.9,59,35,29
 2003/09/04,16:15,32,59,35.3,29.1
 2003/09/04,16:30,32.1,59,35.5,29.2
 2003/09/04,16:45,32,59,35.5,29.2
 2003/09/04,17:00,32,58,35.1,29.3
 2003/09/04,17:15,32,58,34.3,29.5
 2003/09/04,17:30,32,58,33.8,29.5
 2003/09/04,17:45,31.9,58,33.2,29.6
 2003/09/04,18:00,31.7,57,32.6,29.7
 2003/09/04,18:15,31.5,57,32.4,29.8
 2003/09/04,18:30,31.4,57,32.1,29.9
 2003/09/04,18:45,31.2,57,31.9,30
 2003/09/04,19:00,31.1,57,31.8,30
 2003/09/04,19:15,30.9,55.5,31.6,30.1
 2003/09/04,19:30,30.6,54,31.5,30.2
 2003/09/04,19:45,30.3,53.5,31.4,30.3
 2003/09/04,20:00,29.8,52,31.2,30.4
 2003/09/04,20:15,29.5,51.5,31,30.5
 2003/09/04,20:30,29,50,30.8,30.5
 2003/09/04,20:45,28.5,50,30.6,30.6
 2003/09/04,21:00,28.1,49,30.4,30.6
 2003/09/04,21:15,27.7,49,30.2,30.7
 2003/09/04,21:30,27.4,49,30,30.7
 2003/09/04,21:45,27.1,49,29.9,30.8
 2003/09/04,22:00,27,50,29.8,30.8
 2003/09/04,22:15,26.9,50,29.6,30.9
 2003/09/04,22:30,26.8,50,29.5,30.9
 2003/09/04,22:45,26.7,50,29.4,30.9
 2003/09/04,23:00,26.7,50,29.3,30.9
 2003/09/04,23:15,26.8,50,29.1,30.9
 2003/09/04,23:30,26.7,50,29,30.9
 2003/09/04,23:45,26.6,50,28.9,29.8
 2003/09/05, 0:00,26.5,50,28.7,28.8
 2003/09/05, 0:15,26.4,50,28.5,28.8
 2003/09/05, 0:30,26.3,50,28.4,28.9
 2003/09/05, 0:45,26.2,49.5,28.3,28.9
 2003/09/05, 1:00,26.1,50,28.3,28.9
 2003/09/05, 1:15,26.1,50,28.1,28.9
 2003/09/05, 1:30,26,50,28,28.9
 2003/09/05, 1:45,26,50,27.9,29
 2003/09/05, 2:00,26,50,27.8,29
 2003/09/05, 2:15,26,50,27.8,29
 2003/09/05, 2:30,26,50,27.8,28.9
 2003/09/05, 2:45,26.1,50.5,27.8,28.9
 2003/09/05, 3:00,26.1,51,27.7,28.9
 2003/09/05, 3:15,26.2,51,27.5,28.9
 2003/09/05, 3:30,26.3,51,27.5,28.9
 2003/09/05, 3:45,26.4,51,27.5,28.9
 2003/09/05, 4:00,26.5,51,27.4,28.8
 2003/09/05, 4:15,26.5,51,27.4,28.8
 2003/09/05, 4:30,26.7,51,27.3,28.8
 2003/09/05, 4:45,26.8,52,27.3,28.7
 2003/09/05, 5:00,26.8,52,27.2,28.7
 2003/09/05, 5:15,26.9,51.5,27.2,28.6
 2003/09/05, 5:30,27,52,27.1,28.6
 2003/09/05, 5:45,27,52,27.1,28.5
 2003/09/05, 6:00,27,52,27.1,28.5
 2003/09/05, 6:15,27.1,52,27.1,28.5
 2003/09/05, 6:30,27.1,53,27.1,26.8
 2003/09/05, 6:45,27.1,52.5,27.1,26.8
 2003/09/05, 7:00,27.2,53,27.1,26.8
 2003/09/05, 7:15,27.2,53,27.2,26.8
 2003/09/05, 7:30,27.2,53,27.3,26.8
 2003/09/05, 7:45,27.3,53,27.4,26.8
 2003/09/05, 8:00,27.4,53,27.5,26.8
 2003/09/05, 8:15,27.4,53,27.6,27.2
 2003/09/05, 8:30,27.4,53,27.7,27.5
 2003/09/05, 8:45,27.5,53.5,27.8,27.5
 2003/09/05, 9:00,27.6,54,27.9,27.5
 2003/09/05, 9:15,27.6,54,28,27.5
 2003/09/05, 9:30,27.8,54,28.2,27.5
 2003/09/05, 9:45,27.9,54,28.4,27.5
 2003/09/05,10:00,28,54,28.6,27.5
 2003/09/05,10:15,28.1,54,28.8,27.5
 2003/09/05,10:30,28.2,55,28.9,27.5
 2003/09/05,10:45,28.3,55,29,27.5
 2003/09/05,11:00,28.4,55,29.2,27.6
 2003/09/05,11:15,28.5,55,29.4,27.6
 2003/09/05,11:30,28.6,55,29.5,27.6
 2003/09/05,11:45,28.8,55,29.5,27.6
 2003/09/05,12:00,28.9,56,29.7,27.6
 2003/09/05,12:15,29,56,30,27.7
 2003/09/05,12:30,29.2,56,30.1,27.7
 2003/09/05,12:45,29.2,56,30.3,27.7
 2003/09/05,13:00,29.4,57,30.4,27.7
 2003/09/05,13:15,29.5,57,30.8,27.8
 2003/09/05,13:30,29.7,57,31.1,27.8
 2003/09/05,13:45,29.9,57,31.4,27.9
 2003/09/05,14:00,30,58,31.7,27.9
 2003/09/05,14:15,30.2,58,32,28
 2003/09/05,14:30,30.3,58,32.4,28
 2003/09/05,14:45,30.5,58,32.8,28
 2003/09/05,15:00,30.7,58,32.9,28.1
 2003/09/05,15:15,30.8,58,33.2,28.2
 2003/09/05,15:30,30.8,58,33.6,28.2
 2003/09/05,15:45,31,58,33.9,28.3
 2003/09/05,16:00,31.1,58,34.2,28.4
 2003/09/05,16:15,31.2,59,34.5,28.5
 2003/09/05,16:30,31.3,59,34.5,28.5
 2003/09/05,16:45,31.4,59,34.5,28.6
 2003/09/05,17:00,31.4,59,34.2,28.6
 2003/09/05,17:15,31.5,59,33.7,28.7
 2003/09/05,17:30,31.4,58,33,28.8
 2003/09/05,17:45,31.4,58,32.7,28.9
 2003/09/05,18:00,31.4,58,32.4,28.9
 2003/09/05,18:15,31.3,58,32.1,29
 2003/09/05,18:30,31.3,58,31.8,29
 2003/09/05,18:45,31.3,58,31.6,29.1
 2003/09/05,19:00,31.3,59,31.6,29.2
 2003/09/05,19:15,31.7,59.5,31.6,29.2
 2003/09/05,19:30,32,59,31.5,29.3
 2003/09/05,19:45,31.8,58,31.5,29.3
 2003/09/05,20:00,31.8,59,31.4,29.4
 2003/09/05,20:15,31.6,59,31.2,29.4
 2003/09/05,20:30,31.5,59,31.3,29.4
 2003/09/05,20:45,31.5,59,31.4,29.5
 2003/09/05,21:00,31.3,59,31.3,29.5
 2003/09/05,21:15,31.2,59,31.1,29.6
 2003/09/05,21:30,31.1,59,31,29.6
 2003/09/05,21:45,31,59,30.9,29.6
 2003/09/05,22:00,31,59,30.8,29.7
 2003/09/05,22:15,30.9,60,30.8,29.7
 2003/09/05,22:30,30.8,60,30.6,29.7
 2003/09/05,22:45,30.6,60,30.5,29.8
 2003/09/05,23:00,30.7,60,30.5,29.8
 2003/09/05,23:15,30.5,60,30.4,29.8
 2003/09/05,23:30,30.5,60,30.4,29.8
 2003/09/05,23:45,30.5,60,30.2,29.8
 2003/09/06, 0:00,30.4,60,30.2,29.8
 2003/09/06, 0:15,30.4,61,30.1,29.9
 2003/09/06, 0:30,30.3,61,30.1,29.9
 2003/09/06, 0:45,30.3,61,30,29.9
 2003/09/06, 1:00,30.2,61,30,29.9
 2003/09/06, 1:15,30.2,61,30,29.9
 2003/09/06, 1:30,30.1,61,29.9,29.9
 2003/09/06, 1:45,30.1,61,29.9,29.9
 2003/09/06, 2:00,30.1,61,29.8,29.9
 2003/09/06, 2:15,30,61,29.8,29.9
 2003/09/06, 2:30,30,61,29.8,29.9
 2003/09/06, 2:45,30,61,29.7,29.9
 2003/09/06, 3:00,30,62,29.7,29.9
 2003/09/06, 3:15,29.9,61.5,29.7,29.9
 2003/09/06, 3:30,29.8,62,29.6,29.9
 2003/09/06, 3:45,29.9,62,29.6,29.9
 2003/09/06, 4:00,29.8,62,29.6,29.9
 2003/09/06, 4:15,29.8,62,29.5,29.9
 2003/09/06, 4:30,29.7,62,29.5,29.9
 2003/09/06, 4:45,29.7,62,29.5,29.9
 2003/09/06, 5:00,29.7,62,29.6,29.9
 2003/09/06, 5:15,29.8,63,29.5,29.9
 2003/09/06, 5:30,29.8,63,29.5,29.9
 2003/09/06, 5:45,29.8,63,29.5,29.9
 2003/09/06, 6:00,29.7,64,29.5,29.9
 2003/09/06, 6:15,29.7,64,29.5,29.9
 2003/09/06, 6:30,29.7,64,29.5,29.8
 2003/09/06, 6:45,29.7,64,29.6,29.8
 2003/09/06, 7:00,29.7,64,29.6,29.8
 2003/09/06, 7:15,29.7,64.5,29.7,29.8
 2003/09/06, 7:30,29.7,65,29.8,29.8
 2003/09/06, 7:45,29.8,64.5,29.9,29.8
 2003/09/06, 8:00,29.8,65,29.9,29.8
 2003/09/06, 8:15,29.9,64,30,29.8
 2003/09/06, 8:30,29.9,64,30.1,29.8
 2003/09/06, 8:45,30,64,30.1,29.8
 2003/09/06, 9:00,30,64,30.2,29.8
 2003/09/06, 9:15,30.1,64,30.2,29.8
 2003/09/06, 9:30,30.2,64,30.4,29.8
 2003/09/06, 9:45,30.2,64,30.5,29.8
 2003/09/06,10:00,30.4,64,30.6,29.8
 2003/09/06,10:15,30.6,63,30.6,29.8
 2003/09/06,10:30,30.7,63,30.7,29.8
 2003/09/06,10:45,30.9,62.5,30.7,29.9
 2003/09/06,11:00,31,62,30.7,29.9
 2003/09/06,11:15,31.1,62,30.9,29.9
 2003/09/06,11:30,31.3,62,31,29.9
 2003/09/06,11:45,31.4,61,31.1,29.9
 2003/09/06,12:00,31.4,61,31.3,30
 2003/09/06,12:15,31.5,60.5,31.3,30
 2003/09/06,12:30,31.7,61,31.4,30
 2003/09/06,12:45,31.6,60,31.5,30
 2003/09/06,13:00,31.5,60,31.5,30.1
 2003/09/06,13:15,31.6,60.5,31.6,30.1
 2003/09/06,13:30,31.7,60,31.7,30.1
 2003/09/06,13:45,31.7,61,31.7,30.2
 2003/09/06,14:00,31.9,61,31.8,30.2
 2003/09/06,14:15,31.9,61.5,31.8,30.2
 2003/09/06,14:30,31.8,62,31.7,30.3
 2003/09/06,14:45,31.5,64,31.6,30.3
 2003/09/06,15:00,31,67,31.5,30.4
 2003/09/06,15:15,30.9,67,31.5,30.4
 2003/09/06,15:30,30.9,66,31.4,30.4
 2003/09/06,15:45,29.1,56.5,31.3,30.5
 2003/09/06,16:00,27.6,52,31.2,30.5
 2003/09/06,16:15,27.1,54,31,30.5
 2003/09/06,16:30,26.9,55,30.9,30.6
 2003/09/06,16:45,27.1,57.5,31,30.6
 2003/09/06,17:00,26.9,55,31.2,30.6
 2003/09/06,17:15,27,59,31.1,30.6
 2003/09/06,17:30,26.8,56,30.9,30.6
 2003/09/06,17:45,26.5,55,30.7,30.7
 2003/09/06,18:00,26.3,56,30.5,30.7
 2003/09/06,18:15,26.3,59,30.4,30.7
 2003/09/06,18:30,26.9,69,30.2,30.7
 2003/09/06,18:45,27.1,70,30.2,30.7
 2003/09/06,19:00,27.2,71,30.1,30.8
 2003/09/06,19:15,26.7,62,30.1,30.8
 2003/09/06,19:30,26.3,60,30,30.8
 2003/09/06,19:45,26.4,60,29.9,30.8
 2003/09/06,20:00,26,58,29.8,30.8
 2003/09/06,20:15,25.7,56,29.6,30.8
 2003/09/06,20:30,25.4,55,29.5,30.8
 2003/09/06,20:45,25.3,55.5,29.1,30.8
 2003/09/06,21:00,25.7,59,28.7,30.7
 2003/09/06,21:15,25.5,57,28.5,30.7
 2003/09/06,21:30,25.6,59,28.4,30.7
 2003/09/06,21:45,25.9,60,28.3,30.7
 2003/09/06,22:00,25.5,58,28.2,30.6
 2003/09/06,22:15,25.2,57.5,28.1,30.6
 2003/09/06,22:30,25.4,60,28.1,30.6
 2003/09/06,22:45,25.8,61.5,28,30.5
 2003/09/06,23:00,25.9,61,28,30.5
 2003/09/06,23:15,25.8,61,28,30.5
 2003/09/06,23:30,25.9,61,27.8,30.4
 2003/09/06,23:45,25.6,60.5,27.7,30.4
 2003/09/07, 0:00,25.9,63,27.7,30.3
 2003/09/07, 0:15,25.9,62.5,27.6,30.2
 2003/09/07, 0:30,26,63,27.5,30.2
 2003/09/07, 0:45,26,63.5,27.5,30.2
 2003/09/07, 1:00,26.1,67,27.4,30.1
 2003/09/07, 1:15,26,67,27.4,30
 2003/09/07, 1:30,25.7,64,27.3,30
 2003/09/07, 1:45,25.8,63.5,27.2,30
 2003/09/07, 2:00,25.9,64,27.1,29.9
 2003/09/07, 2:15,25.9,63,27.1,29.9
 2003/09/07, 2:30,26.1,63,27.1,27.5
 2003/09/07, 2:45,26.3,62,27.1,27.5
 2003/09/07, 3:00,26.3,62,27.1,27.5
 2003/09/07, 3:15,26.5,62.5,27.1,27.6
 2003/09/07, 3:30,26.6,63,27,27.6
 2003/09/07, 3:45,26.7,63,27,27.6
 2003/09/07, 4:00,26.8,63,27,27.6
 2003/09/07, 4:15,26.8,63.5,26.9,27.6
 2003/09/07, 4:30,26.8,64,26.9,27.6
 2003/09/07, 4:45,26.8,64,26.9,27.6
 2003/09/07, 5:00,26.8,64,26.8,27.6
 2003/09/07, 5:15,26.8,64,26.8,27.6
 2003/09/07, 5:30,26.8,64,26.7,27.6
 2003/09/07, 5:45,26.8,64,26.7,27.6
 2003/09/07, 6:00,26.8,64,26.7,27.6
 2003/09/07, 6:15,26.7,64.5,26.6,27.6
 2003/09/07, 6:30,26.7,65,26.7,27.6
 2003/09/07, 6:45,26.7,65,26.8,27.5
 2003/09/07, 7:00,26.7,65,26.8,27.5
 2003/09/07, 7:15,26.8,64.5,26.9,27.5
 2003/09/07, 7:30,26.8,65,27,27.5
 2003/09/07, 7:45,26.9,65,27,27.5
 2003/09/07, 8:00,27,65,27.2,27.5
 2003/09/07, 8:15,27,65,27.2,27.5
 2003/09/07, 8:30,27.2,65,27.4,27.5
 2003/09/07, 8:45,27.4,65,27.5,27.5
 2003/09/07, 9:00,27.5,65,27.7,26.4
 2003/09/07, 9:15,27.8,64.5,27.9,26.4
 2003/09/07, 9:30,28,64,28,26.4
 2003/09/07, 9:45,28.5,63.5,28.2,26.4
 2003/09/07,10:00,28.8,62,28.4,26.7
 2003/09/07,10:15,29.2,61,28.6,27.4
 2003/09/07,10:30,29.4,60,28.8,27.4
 2003/09/07,10:45,29.8,59.5,29.1,27.4
 2003/09/07,11:00,30.2,59,29.4,27.6
 2003/09/07,11:15,30.5,58,29.6,27.7
 2003/09/07,11:30,30.7,58,29.8,27.7
 2003/09/07,11:45,31,57.5,30,27.8
 2003/09/07,12:00,31,57,30.1,27.8
 2003/09/07,12:15,31.2,57.5,30.6,27.8
 2003/09/07,12:30,31.3,58,30.8,27.8
 2003/09/07,12:45,30.2,52.5,31,27.9
 2003/09/07,13:00,29.4,49,31.3,27.9
 2003/09/07,13:15,29.4,52.5,31.6,27.9
 2003/09/07,13:30,29.5,54,32.1,28
 2003/09/07,13:45,29,50.5,32.1,28
 2003/09/07,14:00,27.8,44,32.5,28
 2003/09/07,14:15,27.7,47.5,32.6,28.1
 2003/09/07,14:30,28.7,52,33,28.2
 2003/09/07,14:45,28.8,50.5,33.2,28.2
 2003/09/07,15:00,28.7,50,33.8,28.3
 2003/09/07,15:15,28.4,49,33.8,28.4
 2003/09/07,15:30,28.3,49,34.1,28.4
 2003/09/07,15:45,28.3,49,34.8,28.5
 2003/09/07,16:00,27.9,47,35.2,28.5
 2003/09/07,16:15,27.2,45,36,28.6
 2003/09/07,16:30,26.9,44,36.5,28.7
 2003/09/07,16:45,26.5,43.5,37,28.8
 2003/09/07,17:00,26.8,45,34.7,28.8
 2003/09/07,17:15,28,45.5,33.7,28.9
 2003/09/07,17:30,28.6,46,33.1,29
 2003/09/07,17:45,29,47,32.8,29.1
 2003/09/07,18:00,29.3,49,32.4,29.2
 2003/09/07,18:15,28,48,31.9,29.2
 2003/09/07,18:30,27.2,50,31.6,29.3
 2003/09/07,18:45,27.5,51.5,31.4,29.4
 2003/09/07,19:00,27.3,51,31.1,29.5
 2003/09/07,19:15,27.1,51,31,29.5
 2003/09/07,19:30,27,51,31,29.6